Tracking 19563 objects as of 20-Mar-2019
HD Live streaming from Space Station
objects crossing your sky now

FENGYUN 1C DEB

Track FENGYUN 1C DEB now!
10-day predictions


NORAD ID: 30322
Int'l Code: 1999-025AAK
Perigee: 809.7 km
Apogee: 1,012.1 km
Inclination: 98.4 °
Period: 103.1 minutes
Semi major axis: 7281 km
RCS: 0.0387 m2 (small)
Launch date: May 10, 1999
Source: People's Republic of China (PRC)
Launch site: Taiyaun Space Center, China (TSC)

Note: This is SATELLITE DEBRIS
aabbcc
Your satellite tracking list
Your tracking list is empty




NASA's NSSDC Master Catalog

Two Line Element Set (TLE):
1 30322U 99025AAK 19078.03358415 +.00000405 +00000-0 +29306-3 0  9991
2 30322 098.3830 096.6789 0138928 330.7282 028.6149 13.97125592619105
Source of the keplerian elements: AFSPC